Location: Windsor
(43.2292°N, 89.3015°W)
Time: 03:00:05
(UTC+00:00)

RS-15 - Visible Passes

Search period start: 29 June 2022 00:00
Search period end: 09 July 2022 00:00
Orbit: 1881 x 2163 km, 64.8° (Epoch: 28 June)

Date Brightness Start Highest point End Pass type
(mag) Time Alt. Az. Time Alt. Az. Time Alt. Az.
29 Jun 9.6 02:57:02 10° NW 03:07:32 30° NNE 03:17:51 10° ENE visible
29 Jun 8.4 05:10:45 10° NNW 05:23:07 65° NE 05:33:32 15° SE visible
29 Jun 8.5 07:23:57 10° NW 07:35:05 43° WSW 07:41:11 26° SSW visible
30 Jun 9.7 02:20:20 10° NW 02:30:28 28° NNE 02:40:32 10° ENE visible
30 Jun 8.7 04:34:36 10° NNW 04:46:43 54° NE 04:57:57 11° ESE visible
30 Jun 8.3 06:47:36 10° NW 06:59:22 55° WSW 07:05:38 30° S visible
01 Jul 8.9 03:58:24 10° NNW 04:10:11 46° NE 04:21:37 10° ESE visible
01 Jul 8.1 06:11:20 10° NW 06:23:32 69° WSW 06:30:10 32° S visible
01 Jul 9.3 08:27:11 10° WNW 08:33:29 16° W 08:37:52 13° WSW visible
02 Jul 9.1 03:22:08 10° NW 03:33:31 39° NNE 03:44:36 10° E visible
02 Jul 8.1 05:35:09 10° NW 05:47:34 85° WSW 05:54:48 30° SSE visible
02 Jul 9.1 07:49:37 10° NW 07:58:09 23° W 08:02:29 19° SW visible
03 Jul 9.3 02:45:45 10° NW 02:56:42 34° NNE 03:07:26 10° E visible
03 Jul 8.2 04:59:00 10° NW 05:11:28 80° NE 05:19:28 26° SE visible
03 Jul 8.8 07:12:42 10° NW 07:22:42 31° WSW 07:27:11 25° SW visible
04 Jul 9.5 02:09:14 10° NW 02:19:46 30° NNE 02:30:09 10° ENE visible
04 Jul 8.4 04:22:53 10° NNW 04:35:15 67° NE 04:44:13 21° SE visible
04 Jul 8.6 06:36:08 10° NW 06:47:07 41° WSW 06:51:56 30° SSW visible
05 Jul 8.6 03:46:44 10° NNW 03:58:53 56° NE 04:09:01 15° ESE visible
05 Jul 8.3 05:59:44 10° NW 06:11:26 53° WSW 06:16:44 34° SSW visible
06 Jul 8.8 03:10:32 10° NNW 03:22:22 47° NE 03:33:50 10° ESE visible
06 Jul 8.2 05:23:29 10° NW 05:35:37 67° WSW 05:41:35 35° S visible
06 Jul 9.4 07:39:38 10° WNW 07:45:28 15° W 07:49:18 13° WSW visible
07 Jul 9.0 02:34:16 10° NW 02:45:43 40° NNE 02:56:51 10° E visible
07 Jul 8.1 04:47:17 10° NW 04:59:40 82° WSW 05:06:29 32° SSE visible
07 Jul 9.2 07:01:54 10° NW 07:10:09 22° W 07:14:13 18° WSW visible
08 Jul 9.2 01:57:55 10° NW 02:08:56 35° NNE 02:19:42 10° E visible
08 Jul 8.2 04:11:08 10° NW 04:23:36 82° NE 04:31:26 27° SE visible
08 Jul 8.9 06:24:55 10° NW 06:34:43 30° WSW 06:39:09 24° SW visible
